Weather History for K1A6 - April, 2013

Change the Weather History Date:

Thursday, April 18, 2013

  Actual Average (KLOZ) Record (KLOZ)
Temperature  
Mean Temperature 69 °F 57 °F  
Max Temperature 82 °F 70 °F 88 °F (1955)
Min Temperature 56 °F 45 °F 28 °F (1983)
Degree Days  
Heating Degree Days 0 8  
Month to date heating degree days 194  
Since 1 July heating degree days 4019  
Cooling Degree Days 4 1  
Month to date cooling degree days 10  
Year to date cooling degree days 13  
Growing Degree Days 19 (Base 50)    
Moisture  
Dew Point 56 °F    
Average Humidity 66    
Maximum Humidity 99    
Minimum Humidity 35    
Precipitation  
Precipitation 0.00 in 0.13 in 1.46 in (1998)
Month to date precipitation 2.34  
Year to date precipitation 13.64  
Sea Level Pressure  
Sea Level Pressure 29.98 in    
Wind  
Wind Speed 4 mph (South)    
Max Wind Speed 15 mph    
Max Gust Speed 24 mph    
Visibility 10 miles    
Events      
T = Trace of Precipitation, MM = Missing Value Source: NWS Daily Summary

Daily Weather History Graph

Daily Weather History Graph

Search for Another Location

Airport or City:

Trip Planner

Search our weather history database for the weather conditions in past years. The results will help you decide how hot, cold, wet, or windy it might be!

Date:

Astronomy

Apr. 18, 2013 Rise Set
Actual Time 5:56 AM CDT 7:12 PM CDT
Civil Twilight 5:30 AM CDT 7:39 PM CDT
Nautical Twilight 4:58 AM CDT 8:11 PM CDT
Astronomical Twilight 4:24 AM CDT 8:44 PM CDT
Moon 12:09 PM CDT (4/18) 1:24 AM CDT (4/18)
Length of Visible Light 14h 08m
Length of Day
13h 15m
First Quarter, 52% of the Moon is Illuminated
Apr 18
First Quarter
Apr 25
Full
May 2
Last Quarter
May 9
New
May 17
First Quarter

Hourly Weather History & Observations

Time (CDT) Temp. Heat Index Dew Point Humidity Pressure Visibility Wind Dir Wind Speed Gust Speed Precip Events Conditions
12:15 AM 59.0 °F - 57.2 °F 94% 30.06 in 10.0 mi Calm Calm - N/A   Clear
12:35 AM 60.3 °F - 57.4 °F 90% 30.06 in 10.0 mi WSW 3.5 mph - N/A   Clear
12:55 AM 59.9 °F - 57.2 °F 91% 30.06 in 10.0 mi WNW 3.5 mph - N/A   Clear
1:15 AM 58.6 °F - 56.8 °F 94% 30.06 in 10.0 mi Calm Calm - N/A   Clear
1:35 AM 59.9 °F - 57.2 °F 91% 30.05 in 10.0 mi SW 3.5 mph - N/A   Clear
1:55 AM 59.2 °F - 57.2 °F 93% 30.05 in 10.0 mi Calm Calm - N/A   Clear
2:15 AM 59.9 °F - 57.2 °F 91% 30.04 in 10.0 mi Calm Calm - N/A   Clear
2:35 AM 59.0 °F - 57.0 °F 93% 30.04 in 10.0 mi WSW 3.5 mph - N/A   Clear
2:55 AM 58.3 °F - 56.8 °F 95% 30.05 in 10.0 mi WSW 3.5 mph - N/A   Clear
3:15 AM 58.3 °F - 56.8 °F 95% 30.05 in 10.0 mi West 3.5 mph - N/A   Clear
3:35 AM 59.0 °F - 57.2 °F 94% 30.05 in 10.0 mi Calm Calm - N/A   Clear
3:55 AM 58.3 °F - 56.8 °F 95% 30.05 in 10.0 mi Calm Calm - N/A   Clear
4:15 AM 58.1 °F - 56.8 °F 96% 30.05 in 10.0 mi Calm Calm - N/A   Scattered Clouds
4:35 AM 57.4 °F - 56.7 °F 97% 30.05 in 10.0 mi Calm Calm - N/A   Clear
4:55 AM 57.2 °F - 56.5 °F 97% 30.05 in 10.0 mi Calm Calm - N/A   Clear
5:15 AM 57.6 °F - 56.8 °F 97% 30.05 in 10.0 mi Calm Calm - N/A   Clear
5:35 AM 57.2 °F - 56.3 °F 97% 30.05 in 10.0 mi Calm Calm - N/A   Clear
5:55 AM 56.7 °F - 56.3 °F 99% 30.06 in 10.0 mi Calm Calm - N/A   Scattered Clouds
6:15 AM 56.7 °F - 56.3 °F 99% 30.06 in 10.0 mi Calm Calm - N/A   Scattered Clouds
6:35 AM 56.3 °F - 55.6 °F 97% 30.05 in 10.0 mi Calm Calm - N/A   Clear
6:55 AM 56.7 °F - 56.3 °F 99% 30.06 in 10.0 mi Calm Calm - N/A   Clear
7:15 AM 56.8 °F - 56.3 °F 98% 30.06 in 10.0 mi Calm Calm - N/A   Clear
7:35 AM 59.2 °F - 57.6 °F 94% 30.06 in 10.0 mi Calm Calm - N/A   Clear
7:55 AM 63.3 °F - 58.6 °F 85% 30.06 in 10.0 mi SSE 5.8 mph - N/A   Clear
8:15 AM 66.9 °F - 58.6 °F 75% 30.05 in 10.0 mi SSE 6.9 mph - N/A   Clear
8:35 AM 67.6 °F - 59.0 °F 74% 30.05 in 10.0 mi South 9.2 mph - N/A   Clear
8:55 AM 68.5 °F - 59.0 °F 72% 30.06 in 10.0 mi South 8.1 mph - N/A   Clear
9:15 AM 68.9 °F - 59.2 °F 71% 30.07 in 10.0 mi South 8.1 mph - N/A   Clear
9:35 AM 70.7 °F - 59.9 °F 69% 30.06 in 10.0 mi SSE 6.9 mph - N/A   Clear
9:55 AM 71.6 °F - 59.7 °F 66% 30.06 in 10.0 mi South 11.5 mph 18.4 mph N/A   Clear
10:15 AM 71.2 °F - 59.5 °F 66% 30.06 in 10.0 mi SSE 4.6 mph - N/A   Clear
10:35 AM 73.2 °F - 60.4 °F 64% 30.05 in 10.0 mi South 3.5 mph - N/A   Scattered Clouds
10:55 AM 73.8 °F - 60.1 °F 62% 30.05 in 10.0 mi SSW 6.9 mph 16.1 mph N/A   Scattered Clouds
11:15 AM 75.6 °F - 59.7 °F 58% 30.04 in 10.0 mi South 8.1 mph 19.6 mph N/A   Scattered Clouds
11:35 AM 75.2 °F - 59.2 °F 57% 30.03 in 10.0 mi SSW 8.1 mph 16.1 mph N/A   Mostly Cloudy
11:55 AM 75.6 °F - 59.5 °F 57% 30.01 in 10.0 mi South 12.7 mph - N/A   Overcast
12:15 PM 76.3 °F - 59.9 °F 57% 30.00 in 10.0 mi SSW 10.4 mph - N/A   Scattered Clouds
12:35 PM 76.6 °F - 59.7 °F 56% 29.99 in 10.0 mi SSW 5.8 mph - N/A   Mostly Cloudy
12:55 PM 78.1 °F - 59.7 °F 53% 29.98 in 10.0 mi SSE 8.1 mph - N/A   Scattered Clouds
1:15 PM 78.8 °F - 58.1 °F 49% 29.97 in 10.0 mi SW 8.1 mph - N/A   Mostly Cloudy
1:35 PM 79.0 °F - 58.1 °F 49% 29.96 in 10.0 mi SSE 11.5 mph 17.3 mph N/A   Scattered Clouds
1:55 PM 80.2 °F 80.5 °F 56.8 °F 45% 29.95 in 10.0 mi SSW 13.8 mph 20.7 mph N/A   Scattered Clouds
2:15 PM 81.0 °F 80.9 °F 56.5 °F 43% 29.95 in 10.0 mi South 9.2 mph 24.2 mph N/A   Scattered Clouds
2:35 PM 81.5 °F 80.9 °F 54.3 °F 39% 29.94 in 10.0 mi South 11.5 mph 24.2 mph N/A   Mostly Cloudy
2:55 PM 82.0 °F - 52.2 °F 35% 29.93 in 10.0 mi SSE 11.5 mph 18.4 mph N/A   Overcast
3:35 PM 81.7 °F 81.0 °F 53.8 °F 38% 29.91 in 10.0 mi South 13.8 mph 19.6 mph N/A   Mostly Cloudy
3:55 PM 81.5 °F - 52.5 °F 37% 29.91 in 10.0 mi SSW 15.0 mph 21.9 mph N/A   Scattered Clouds
4:15 PM 80.1 °F - 51.4 °F 37% 29.91 in 10.0 mi South 11.5 mph 19.6 mph N/A   Clear
4:35 PM 80.8 °F - 51.3 °F 36% 29.91 in 10.0 mi SSE 8.1 mph 19.6 mph N/A   Scattered Clouds
4:55 PM 80.8 °F - 50.7 °F 35% 29.91 in 10.0 mi South 9.2 mph 16.1 mph N/A   Scattered Clouds
5:15 PM 78.8 °F - 50.4 °F 37% 29.91 in 10.0 mi SSW 6.9 mph 19.6 mph N/A   Clear
5:35 PM 79.7 °F - 50.4 °F 36% 29.90 in 10.0 mi SSE 9.2 mph - N/A   Clear
5:55 PM 78.6 °F - 51.1 °F 38% 29.89 in 10.0 mi SSE 9.2 mph 16.1 mph N/A   Scattered Clouds
6:15 PM 77.9 °F - 50.5 °F 38% 29.88 in 10.0 mi South 11.5 mph 18.4 mph N/A   Mostly Cloudy
6:35 PM 77.2 °F - 50.7 °F 39% 29.87 in 10.0 mi South 4.6 mph - N/A   Scattered Clouds
6:55 PM 76.3 °F - 50.9 °F 41% 29.87 in 10.0 mi SSW 8.1 mph - N/A   Clear
7:15 PM 75.6 °F - 50.9 °F 42% 29.87 in 10.0 mi SE 3.5 mph - N/A   Clear
7:35 PM 75.2 °F - 51.1 °F 43% 29.87 in 10.0 mi South 5.8 mph - N/A   Clear
7:55 PM 74.8 °F - 51.3 °F 44% 29.86 in 10.0 mi South 4.6 mph - N/A   Clear
8:15 PM 73.8 °F - 51.6 °F 46% 29.86 in 10.0 mi South 6.9 mph - N/A   Clear
8:35 PM 74.1 °F - 51.4 °F 45% 29.88 in 10.0 mi South 6.9 mph - N/A   Clear
9:55 PM 72.9 °F - 52.5 °F 49% 29.85 in 10.0 mi South 10.4 mph - N/A   Clear
10:35 PM 72.5 °F - 52.9 °F 50% 29.82 in 10.0 mi SSW 9.2 mph - N/A   Clear
10:55 PM 72.3 °F - 53.2 °F 51% 29.81 in 10.0 mi SSW 4.6 mph 16.1 mph N/A   Clear
11:15 PM 72.5 °F - 53.1 °F 50% 29.81 in 10.0 mi SSW 9.2 mph 18.4 mph N/A   Clear
11:35 PM 72.0 °F - 53.4 °F 52% 29.80 in 10.0 mi SW 3.5 mph - N/A   Clear
11:55 PM 72.0 °F - 53.8 °F 53% 29.79 in 10.0 mi South 6.9 mph - N/A   Clear